sat.trackr.live / text

‹ back to catalog

HULIANWANG DIGUI-11

NORAD 62971 · 2025-030A

PAYLOAD ACTIVE UNKNOWN

§ Identity

Operator
Country
PRC
Launch date
2025-02-11
Launch site
WSC
Launch vehicle
Mass (kg)
RCS (m²)

External: N2YO · Heavens-Above · Gunter

§ Orbital elements

Epoch: 2026-09-22T21:26:41.372160Z

Period
108.33 min
Inclination
49.9997°
Eccentricity
0.0000544
Mean motion
13.29327608 rev/d
Perigee alt
1,148.9 km
Apogee alt
1,149.7 km
Semi-major
7,527.4 km
B*
4.2309e-5
RAAN
245.3722°
Arg perigee
60.2428°
Mean anomaly
299.8498°
Rev number
7,885

§ Raw data

HULIANWANG DIGUI-111 62971U 25030A   26265.89353440 -.00000104  00000+0  42309-4 0  99992 62971  49.9997 245.3722 0000544  60.2428 299.8498 13.29327608 78852

JSON: /api/v1/satellites/62971 · /tle

For live sub-satellite position, see the globe view (requires WebGL).

§ Visibility from observer

Set your observer location to see the next 7 days of passes ≥ 10°. The values pass through the URL so the page stays shareable.

No JS? Fill the form by hand. The geolocation button needs JavaScript.